Location: *
(46.3500°N, 10.9000°E)
Time: 22:41:50
(UTC+00:00)

Explorer 7 - Pass Details

Date: 26 April 2021
Orbit: 484 x 677 km, 50.3° (Epoch: 13 May)

Event Time Altitude Azimuth Distance (km) Brightness Sun altitude
Rises 19:20:51 0° 276° (W) 2,628 11.5 -10.4°
Reaches altitude 10° 19:23:04 10° 282° (WNW) 1,768 10.6 -10.7°
Maximum altitude 19:26:57 48° 357° (N) 724 7.7 -11.2°
Drops below altitude 10° 19:31:07 10° 73° (ENE) 1,881 9.2 -11.8°
Enters shadow 19:31:55 - 76° (ENE) 2,190 9.5 -11.9°
Sets 19:33:31 0° 79° (E) 2,817 - -12.2°
